SWARM B

Last updated on Thu Sep 10 2026 00:03:32 GMT+0000 (Coordinated Universal Time)

1 39451U 13067A 26252.57292603 .00002476 00000+0 86655-4 0 9992 2 39451 87.7453 316.6954 0003442 92.7921 267.3722 15.29014223696138
UTC large
Height (km)
Speed (km/s)
/
Latitude / Longitude
Inclination (degrees)
Orbital Period (minutes)
Azimuth
Elevation
Range (km)
Doppler Factor

Next 0 passes for location: London (51.5072 / 0.1276)

No passes found over London.
SWARM B